Weather History for Paynesville, MN

Change the Weather History Date:

Friday, October 4, 2013

  Actual Average (KLJF) Record (KLJF)
Temperature  
Mean Temperature 53 °F -  
Max Temperature 56 °F 66 °F 83 °F (1963)
Min Temperature 50 °F 42 °F 24 °F (1989)
Degree Days  
Heating Degree Days 12    
Growing Degree Days 3 (Base 50)    
Moisture  
Dew Point 51 °F    
Average Humidity 92    
Maximum Humidity 98    
Minimum Humidity 83    
Precipitation  
Precipitation 0.07 in - - ()
Sea Level Pressure  
Sea Level Pressure 29.95 in    
Wind  
Wind Speed 10 mph (NE)    
Max Wind Speed 18 mph    
Max Gust Speed 30 mph    
Visibility 6 miles    
Events Rain , Thunderstorm    
Averages and records for this station are not official NWS values.
T = Trace of Precipitation, MM = Missing Value Source: NWS Daily Summary

Daily Weather History Graph

Daily Weather History Graph

Search for Another Location

Airport:

Trip Planner

Search our weather history database for the weather conditions in past years. The results will help you decide how hot, cold, wet, or windy it might be!

Date:

Astronomy

Oct. 04, 2013 Rise Set
Actual Time 7:21 AM CDT 6:53 PM CDT
Civil Twilight 6:51 AM CDT 7:22 PM CDT
Nautical Twilight 6:17 AM CDT 7:56 PM CDT
Astronomical Twilight 5:42 AM CDT 8:31 PM CDT
Moon 6:58 AM CDT (10/4) 6:34 PM CDT (10/4)
Length of Visible Light 12h 30m
Length of Day
11h 31m
Waning Crescent, 0% of the Moon is Illuminated
Oct 4
Waning Crescent
Oct 4
New
Oct 11
First Quarter
Oct 18
Full
Oct 26
Last Quarter

Hourly Weather History & Observations

Time (CDT) Temp. Dew Point Humidity Pressure Visibility Wind Dir Wind Speed Gust Speed Precip Events Conditions
12:13 AM 51.3 °F 50.7 °F 98% 29.98 in 5.0 mi NNE 8.1 mph - N/A Rain Light Rain
12:33 AM 51.1 °F 50.4 °F 97% 29.99 in 5.0 mi NE 8.1 mph 16.1 mph N/A Rain Light Rain
12:52 AM 51.1 °F 50.4 °F 97% 29.97 in 4.0 mi NNE 8.1 mph - N/A Rain Light Rain
1:13 AM 51.1 °F 50.4 °F 97% 29.97 in 5.0 mi NNE 8.1 mph - N/A Rain Light Rain
1:33 AM 50.9 °F 50.2 °F 97% 29.96 in 5.0 mi NNE 9.2 mph 18.4 mph N/A Rain Rain
1:53 AM 51.1 °F 50.4 °F 97% 29.97 in 7.0 mi NE 6.9 mph - N/A Rain Heavy Rain
2:12 AM 51.3 °F 50.4 °F 97% 29.98 in 7.0 mi NE 8.1 mph - N/A Rain Heavy Rain
2:33 AM 51.6 °F 50.2 °F 95% 29.99 in 10.0 mi NE 8.1 mph - N/A Rain Heavy Rain
2:53 AM 51.4 °F 50.2 °F 95% 29.98 in 7.0 mi NNE 8.1 mph - N/A Rain Heavy Rain
3:13 AM 51.6 °F 50.2 °F 95% 29.98 in 7.0 mi NNE 8.1 mph - N/A Rain Heavy Rain
3:32 AM 51.4 °F 50.2 °F 95% 29.98 in 10.0 mi NE 5.8 mph - N/A Rain Heavy Rain
3:52 AM 51.4 °F 50.2 °F 95% 29.97 in 5.0 mi NE 9.2 mph 16.1 mph N/A Rain Heavy Rain
4:13 AM 51.3 °F 50.2 °F 96% 29.96 in 7.0 mi NNE 8.1 mph - N/A Rain Heavy Rain
4:33 AM 51.4 °F 50.4 °F 96% 29.97 in 7.0 mi NE 8.1 mph - N/A Rain Heavy Rain
4:52 AM 51.4 °F 50.2 °F 95% 29.98 in 7.0 mi ENE 9.2 mph - N/A Rain Heavy Rain
5:12 AM 51.6 °F 50.2 °F 95% 29.99 in 7.0 mi ENE 8.1 mph - N/A Rain Heavy Rain
5:33 AM 51.6 °F 50.4 °F 95% 29.99 in 5.0 mi NE 8.1 mph - N/A Rain Light Rain
5:53 AM 51.4 °F 50.5 °F 97% 29.98 in 5.0 mi NE 6.9 mph - N/A Rain Light Rain
6:13 AM 51.3 °F 50.5 °F 97% 29.99 in 4.0 mi NE 8.1 mph - N/A Rain Light Rain
6:33 AM 51.4 °F 50.7 °F 97% 29.99 in 3.0 mi NNE 6.9 mph - N/A Rain Light Rain
6:53 AM 51.4 °F 50.9 °F 98% 29.99 in 5.0 mi NE 9.2 mph - N/A Rain Light Rain
7:12 AM 51.4 °F 50.9 °F 98% 29.99 in 7.0 mi NNE 8.1 mph - N/A Rain Heavy Rain
7:33 AM 51.6 °F 50.9 °F 97% 30.00 in 7.0 mi NE 6.9 mph - N/A Rain Heavy Rain
7:53 AM 51.8 °F 50.9 °F 97% 29.99 in 7.0 mi NE 9.2 mph - N/A Rain Rain
8:13 AM 51.8 °F 51.1 °F 97% 29.99 in 5.0 mi NE 11.5 mph 18.4 mph N/A Rain Heavy Rain
8:33 AM 51.8 °F 50.9 °F 97% 30.00 in 7.0 mi NE 8.1 mph 16.1 mph N/A Rain Heavy Rain
8:52 AM 51.8 °F 50.9 °F 97% 30.00 in 5.0 mi NE 10.4 mph 17.3 mph N/A Rain Rain
9:13 AM 51.8 °F 50.5 °F 95% 30.00 in 7.0 mi NE 11.5 mph 17.3 mph N/A Rain Heavy Rain
9:33 AM 52.0 °F 50.4 °F 94% 30.00 in 7.0 mi ENE 12.7 mph 18.4 mph N/A Rain Rain
9:53 AM 52.0 °F 50.4 °F 94% 29.99 in 7.0 mi NE 12.7 mph 21.9 mph N/A Rain Rain
10:12 AM 51.8 °F 50.2 °F 94% 29.99 in 5.0 mi NE 13.8 mph 21.9 mph N/A Rain Rain
10:32 AM 52.0 °F 50.5 °F 95% 29.98 in 4.0 mi NE 12.7 mph 20.7 mph N/A Rain Heavy Rain
10:53 AM 52.2 °F 50.9 °F 95% 29.98 in 5.0 mi ENE 13.8 mph 21.9 mph N/A Rain Heavy Rain
11:13 AM 52.3 °F 50.5 °F 94% 29.99 in 7.0 mi NE 11.5 mph 21.9 mph N/A Rain Heavy Rain
11:32 AM 52.9 °F 50.9 °F 93% 29.99 in 7.0 mi ENE 12.7 mph 20.7 mph N/A Rain Heavy Rain
11:53 AM 53.1 °F 50.5 °F 91% 30.00 in 7.0 mi ENE 10.4 mph 16.1 mph N/A Rain Heavy Rain
12:12 PM 53.6 °F 50.7 °F 90% 30.01 in 7.0 mi ENE 11.5 mph 18.4 mph N/A Rain Rain
12:33 PM 53.8 °F 50.9 °F 90% 30.01 in 7.0 mi ENE 10.4 mph 16.1 mph N/A Rain Heavy Rain
12:53 PM 53.8 °F 50.9 °F 90% 29.99 in 7.0 mi ENE 17.3 mph 20.7 mph N/A Rain Heavy Rain
1:13 PM 53.8 °F 50.9 °F 90% 30.00 in 5.0 mi ENE 13.8 mph 24.2 mph N/A Rain Rain
1:32 PM 54.0 °F 51.3 °F 91% 29.98 in 5.0 mi ENE 13.8 mph 19.6 mph N/A Rain Heavy Rain
1:52 PM 54.5 °F 51.4 °F 89% 29.96 in 5.0 mi ENE 12.7 mph 19.6 mph N/A Rain Heavy Rain
2:13 PM 54.5 °F 51.3 °F 89% 29.95 in 5.0 mi NE 17.3 mph 26.5 mph N/A Rain Heavy Rain
2:33 PM 54.9 °F 51.1 °F 87% 29.95 in 7.0 mi ENE 13.8 mph 27.6 mph N/A Rain Heavy Rain
2:52 PM 55.0 °F 50.9 °F 86% 29.94 in 7.0 mi ENE 13.8 mph 24.2 mph N/A Rain Heavy Rain
3:12 PM 54.7 °F 51.1 °F 88% 29.94 in 4.0 mi ENE 16.1 mph 23.0 mph N/A Rain Heavy Rain
3:33 PM 55.0 °F 51.1 °F 86% 29.94 in 7.0 mi ENE 12.7 mph 23.0 mph N/A Rain Heavy Rain
3:52 PM 55.6 °F 51.3 °F 85% 29.93 in 7.0 mi NE 15.0 mph 23.0 mph N/A Rain Heavy Rain
4:12 PM 55.9 °F 51.3 °F 84% 29.91 in 5.0 mi NE 17.3 mph 21.9 mph N/A Rain Heavy Rain
4:33 PM 56.3 °F 51.3 °F 83% 29.93 in 4.0 mi ENE 10.4 mph 24.2 mph N/A Rain Heavy Rain
4:53 PM 56.3 °F 51.3 °F 83% 29.94 in 7.0 mi ENE 13.8 mph 19.6 mph N/A Rain Rain
5:12 PM 56.3 °F 51.4 °F 84% 29.94 in 7.0 mi ENE 12.7 mph 20.7 mph N/A Rain Heavy Rain
5:33 PM 56.3 °F 51.8 °F 85% 29.94 in 7.0 mi ENE 12.7 mph 19.6 mph N/A Rain Heavy Rain
5:53 PM 56.3 °F 51.8 °F 85% 29.93 in 7.0 mi ENE 18.4 mph 21.9 mph N/A Rain Heavy Rain
6:13 PM 56.3 °F 52.0 °F 85% 29.91 in 7.0 mi ENE 13.8 mph 23.0 mph N/A Rain Heavy Rain
6:32 PM 56.3 °F 51.8 °F 85% 29.92 in 7.0 mi ENE 11.5 mph 20.7 mph N/A Rain Heavy Rain
6:53 PM 55.9 °F 51.8 °F 86% 29.91 in 7.0 mi ENE 16.1 mph 26.5 mph N/A Rain Heavy Rain
7:13 PM 55.6 °F 51.4 °F 86% 29.90 in 7.0 mi ENE 18.4 mph 25.3 mph N/A Rain Heavy Rain
7:32 PM 55.6 °F 51.4 °F 86% 29.91 in 7.0 mi ENE 13.8 mph 20.7 mph N/A Rain Heavy Rain
7:53 PM 55.4 °F 51.4 °F 87% 29.89 in 7.0 mi ENE 18.4 mph 28.8 mph N/A Rain Heavy Rain
8:12 PM 55.4 °F 51.8 °F 88% 29.91 in 7.0 mi East 13.8 mph 21.9 mph N/A Rain Heavy Rain
8:33 PM 55.4 °F 51.8 °F 88% 29.91 in 7.0 mi ENE 17.3 mph 29.9 mph N/A Rain Heavy Rain
8:53 PM 54.9 °F 51.8 °F 89% 29.89 in 7.0 mi ENE 16.1 mph 25.3 mph N/A Rain Rain
9:13 PM 53.8 °F 51.8 °F 93% 29.88 in 7.0 mi ENE 15.0 mph 21.9 mph N/A Rain Light Rain
9:32 PM 53.2 °F 51.8 °F 95% 29.86 in 4.0 mi NE 16.1 mph 25.3 mph N/A Rain Light Rain
9:53 PM 52.7 °F 51.6 °F 96% 29.85 in 4.0 mi ENE 16.1 mph 24.2 mph 0.01 in Rain Light Rain
10:13 PM 52.7 °F 51.6 °F 96% 29.86 in 7.0 mi ENE 13.8 mph 23.0 mph 0.01 in Rain Light Rain
10:32 PM 52.7 °F 51.4 °F 95% 29.85 in 7.0 mi ENE 12.7 mph 21.9 mph 0.01 in Rain Light Rain
10:53 PM 52.7 °F 51.8 °F 97% 29.86 in 7.0 mi ENE 11.5 mph 20.7 mph 0.01 in Rain , Thunderstorm Light Thunderstorms and Rain
11:13 PM 52.9 °F 51.8 °F 96% 29.85 in 10.0 mi ENE 13.8 mph 18.4 mph 0.03 in Rain , Thunderstorm Thunderstorms and Rain
11:33 PM 53.1 °F 51.8 °F 95% 29.83 in 10.0 mi ENE 16.1 mph 26.5 mph 0.05 in Rain Light Rain
11:52 PM 53.1 °F 51.8 °F 95% 29.81 in 7.0 mi ENE 18.4 mph 25.3 mph 0.05 in Rain , Thunderstorm Light Thunderstorms and Rain